| time (UTC) | temp F | wind direction | speed knots | gust knots | rain 1hr in | rain 24hr in | rain mn in | humidity % | barometer mb |
| 20260508041708 | 60 | 204 | 0.0 | 0.0 | 0.00 | 0.00 | 0.00 | 55 | 1023.7 |
| 20260508041657 | 60 | 224 | 0.0 | 0.0 | 0.00 | 0.00 | 0.00 | 57 | 1023.7 |
| 20260508040707 | 61 | 224 | 0.0 | 0.0 | 0.00 | 0.00 | 0.00 | 56 | 1023.7 |
| 20260508040209 | 62 | 224 | 0.0 | 0.0 | 0.00 | 0.00 | 0.00 | 53 | 1023.7 |
| 20260508035707 | 63 | 224 | 0.0 | 0.0 | 0.00 | 0.00 | 0.00 | 52 | 1023.6 |
| 20260508035210 | 63 | 285 | 0.0 | 0.0 | 0.00 | 0.00 | 0.00 | 51 | 1023.6 |
| 20260508034939 | 63 | 326 | 0.0 | 0.0 | 0.00 | 0.00 | 0.00 | 51 | 1023.5 |
| 20260508034212 | 64 | 288 | 0.0 | 0.0 | 0.00 | 0.00 | 0.00 | 50 | 1023.5 |
| 20260508033708 | 65 | 251 | 0.0 | 0.0 | 0.00 | 0.00 | 0.00 | 49 | 1023.4 |
| 20260508033431 | 65 | 213 | 0.0 | 0.0 | 0.00 | 0.00 | 0.00 | 48 | 1023.5 |
| 20260508032708 | 66 | 207 | 0.0 | 0.0 | 0.00 | 0.00 | 0.00 | 46 | 1023.4 |
| 20260508032207 | 67 | 245 | 0.0 | 0.0 | 0.00 | 0.00 | 0.00 | 46 | 1023.3 |
| 20260508031707 | 67 | 190 | 0.0 | 0.0 | 0.00 | 0.00 | 0.00 | 45 | 1023.3 |
| 20260508031207 | 68 | 190 | 0.0 | 0.0 | 0.00 | 0.00 | 0.00 | 43 | 1023.2 |
| 20260508030708 | 69 | 102 | 0.0 | 0.0 | 0.00 | 0.00 | 0.00 | 42 | 1023.2 |
| 20260508030207 | 69 | 102 | 0.0 | 0.0 | 0.00 | 0.00 | 0.00 | 44 | 1023.2 |
| 20260508025706 | 70 | 102 | 0.0 | 0.0 | 0.00 | 0.00 | 0.00 | 45 | 1023.2 |
| 20260508025207 | 71 | 102 | 0.0 | 0.0 | 0.00 | 0.00 | 0.00 | 41 | 1023.1 |
| 20260508024706 | 72 | 102 | 0.0 | 0.0 | 0.00 | 0.00 | 0.00 | 37 | 1023.0 |
| 20260508024207 | 73 | 110 | 0.0 | 0.0 | 0.00 | 0.00 | 0.00 | 37 | 1023.0 |
| 20260508023705 | 73 | 110 | 0.0 | 3.5 | 0.00 | 0.00 | 0.00 | 36 | 1022.9 |
| 20260508023207 | 74 | 130 | 0.9 | 3.5 | 0.00 | 0.00 | 0.00 | 35 | 1022.9 |
| 20260508022706 | 74 | 124 | 0.0 | 3.5 | 0.00 | 0.00 | 0.00 | 34 | 1022.7 |
| 20260508022207 | 74 | 130 | 1.7 | 3.5 | 0.00 | 0.00 | 0.00 | 34 | 1022.9 |
| 20260508021930 | 74 | 135 | 1.7 | 4.3 | 0.00 | 0.00 | 0.00 | 34 | 1022.9 |
| 20260508021205 | 74 | 111 | 1.7 | 4.3 | 0.00 | 0.00 | 0.00 | 34 | 1022.9 |
| 20260508020705 | 74 | 90 | 1.7 | 3.5 | 0.00 | 0.00 | 0.00 | 34 | 1022.7 |
| 20260508020205 | 75 | 113 | 0.0 | 2.6 | 0.00 | 0.00 | 0.00 | 32 | 1022.7 |
| 20260508015706 | 75 | 138 | 0.0 | 1.7 | 0.00 | 0.00 | 0.00 | 32 | 1022.9 |
| 20260508015205 | 76 | 138 | 0.0 | 1.7 | 0.00 | 0.00 | 0.00 | 29 | 1022.7 |
| 20260508014927 | 76 | 134 | 0.0 | 1.7 | 0.00 | 0.00 | 0.00 | 30 | 1022.7 |
| 20260508014204 | 76 | 125 | 0.9 | 3.5 | 0.00 | 0.00 | 0.00 | 28 | 1022.7 |
| 20260508013706 | 77 | 130 | 1.7 | 4.3 | 0.00 | 0.00 | 0.00 | 29 | 1022.7 |
| 20260508013205 | 77 | 151 | 1.7 | 4.3 | 0.00 | 0.00 | 0.00 | 28 | 1022.7 |
| 20260508012704 | 77 | 99 | 2.6 | 3.5 | 0.00 | 0.00 | 0.00 | 28 | 1022.7 |
| 20260508012205 | 77 | 94 | 1.7 | 4.3 | 0.00 | 0.00 | 0.00 | 28 | 1022.9 |
| 20260508011704 | 77 | 134 | 0.9 | 5.2 | 0.00 | 0.00 | 0.00 | 27 | 1022.7 |
| 20260508011646 | 78 | 114 | 2.6 | 5.2 | 0.00 | 0.00 | 0.00 | 26 | 1022.7 |
| 20260508010704 | 78 | 125 | 1.7 | 6.1 | 0.00 | 0.00 | 0.00 | 25 | 1023.0 |
| 20260508010206 | 79 | 151 | 1.7 | 7.8 | 0.00 | 0.00 | 0.00 | 25 | 1023.0 |
| 20260508005704 | 79 | 135 | 4.3 | 7.8 | 0.00 | 0.00 | 0.00 | 24 | 1023.0 |
| 20260508005205 | 79 | 100 | 2.6 | 6.1 | 0.00 | 0.00 | 0.00 | 25 | 1023.1 |
| 20260508004925 | 79 | 102 | 4.3 | 8.7 | 0.00 | 0.00 | 0.00 | 25 | 1023.0 |
| 20260508004203 | 79 | 96 | 4.3 | 8.7 | 0.00 | 0.00 | 0.00 | 24 | 1023.0 |
| 20260508003703 | 79 | 117 | 3.5 | 8.7 | 0.00 | 0.00 | 0.00 | 24 | 1023.1 |
| 20260508003203 | 80 | 138 | 4.3 | 7.8 | 0.00 | 0.00 | 0.00 | 24 | 1023.1 |
| 20260508002704 | 80 | 131 | 3.5 | 7.8 | 0.00 | 0.00 | 0.00 | 23 | 1023.2 |
| 20260508002203 | 80 | 116 | 3.5 | 8.7 | 0.00 | 0.00 | 0.00 | 24 | 1023.2 |
| 20260508001704 | 80 | 147 | 4.3 | 8.7 | 0.00 | 0.00 | 0.00 | 22 | 1023.3 |
| 20260508001428 | 80 | 138 | 2.6 | 6.1 | 0.00 | 0.00 | 0.00 | 24 | 1023.1 |
| 20260508001151 | 80 | 130 | 1.7 | 7.8 | 0.00 | 0.00 | 0.00 | 22 | 1023.2 |
| 20260508000204 | 80 | 148 | 3.5 | 7.8 | 0.00 | 0.00 | 0.00 | 23 | 1023.2 |
| 20260507235702 | 80 | 116 | 5.2 | 9.6 | 0.00 | 0.00 | 0.00 | 23 | 1023.2 |
| 20260507235202 | 80 | 133 | 4.3 | 9.6 | 0.00 | 0.00 | 0.00 | 23 | 1023.3 |
| 20260507234702 | 81 | 152 | 4.3 | 9.6 | 0.00 | 0.00 | 0.00 | 23 | 1023.3 |
| 20260507234203 | 81 | 137 | 2.6 | 6.1 | 0.00 | 0.00 | 0.00 | 22 | 1023.3 |
| 20260507233701 | 80 | 162 | 3.5 | 5.2 | 0.00 | 0.00 | 0.00 | 23 | 1023.3 |
| 20260507233203 | 81 | 138 | 2.6 | 5.2 | 0.00 | 0.00 | 0.00 | 22 | 1023.4 |
| 20260507232702 | 80 | 125 | 3.5 | 5.2 | 0.00 | 0.00 | 0.00 | 23 | 1023.5 |
| 20260507232428 | 81 | 209 | 2.6 | 6.1 | 0.00 | 0.00 | 0.00 | 23 | 1023.5 |
| 20260507231701 | 80 | 92 | 3.5 | 6.1 | 0.00 | 0.00 | 0.00 | 23 | 1023.5 |
| 20260507231201 | 80 | 134 | 0.9 | 9.6 | 0.00 | 0.00 | 0.00 | 24 | 1023.5 |
| 20260507230702 | 80 | 97 | 5.2 | 9.6 | 0.00 | 0.00 | 0.00 | 23 | 1023.5 |
| 20260507230201 | 80 | 133 | 2.6 | 5.2 | 0.00 | 0.00 | 0.00 | 23 | 1023.5 |
| 20260507225702 | 80 | 213 | 0.9 | 8.7 | 0.00 | 0.00 | 0.00 | 23 | 1023.7 |
| 20260507225201 | 80 | 100 | 4.3 | 8.7 | 0.00 | 0.00 | 0.00 | 24 | 1023.8 |
| 20260507224702 | 80 | 148 | 3.5 | 8.7 | 0.00 | 0.00 | 0.00 | 23 | 1023.8 |
| 20260507224200 | 80 | 82 | 5.2 | 8.7 | 0.00 | 0.00 | 0.00 | 23 | 1023.9 |
| 20260507223702 | 80 | 117 | 3.5 | 9.6 | 0.00 | 0.00 | 0.00 | 24 | 1024.0 |
| 20260507223201 | 80 | 155 | 5.2 | 9.6 | 0.00 | 0.00 | 0.00 | 24 | 1024.0 |
| 20260507222920 | 80 | 103 | 3.5 | 7.8 | 0.00 | 0.00 | 0.00 | 24 | 1024.1 |
| 20260507222800 | 79 | 103 | 3.5 | 7.8 | 0.00 | 0.00 | 0.00 | 23 | 1024.0 |
| 20260507221659 | 80 | 51 | 2.6 | 7.8 | 0.00 | 0.00 | 0.00 | 23 | 1024.2 |
| 20260507221201 | 79 | 93 | 2.6 | 9.6 | 0.00 | 0.00 | 0.00 | 24 | 1024.4 |
| 20260507220700 | 79 | 137 | 6.1 | 9.6 | 0.00 | 0.00 | 0.00 | 23 | 1024.4 |
| 20260507220201 | 79 | 117 | 3.5 | 10.4 | 0.00 | 0.00 | 0.00 | 25 | 1024.5 |
| 20260507215659 | 80 | 117 | 7.0 | 10.4 | 0.00 | 0.00 | 0.00 | 23 | 1024.5 |
| 20260507215423 | 80 | 86 | 3.5 | 8.7 | 0.00 | 0.00 | 0.00 | 24 | 1024.5 |
| 20260507214700 | 80 | 103 | 1.7 | 8.7 | 0.00 | 0.00 | 0.00 | 24 | 1024.6 |
| 20260507214159 | 79 | 51 | 3.5 | 8.7 | 0.00 | 0.00 | 0.00 | 24 | 1024.8 |
| 20260507213659 | 79 | 114 | 4.3 | 8.7 | 0.00 | 0.00 | 0.00 | 23 | 1024.8 |
| 20260507213159 | 79 | 124 | 2.6 | 10.4 | 0.00 | 0.00 | 0.00 | 24 | 1024.8 |
| 20260507212700 | 78 | 134 | 5.2 | 10.4 | 0.00 | 0.00 | 0.00 | 23 | 1024.9 |
| 20260507212159 | 79 | 137 | 1.7 | 10.4 | 0.00 | 0.00 | 0.00 | 23 | 1024.9 |
| 20260507211700 | 79 | 73 | 4.3 | 10.4 | 0.00 | 0.00 | 0.00 | 22 | 1025.0 |
| 20260507211159 | 79 | 49 | 4.3 | 9.6 | 0.00 | 0.00 | 0.00 | 24 | 1024.9 |
| 20260507210700 | 79 | 171 | 2.6 | 8.7 | 0.00 | 0.00 | 0.00 | 23 | 1025.0 |
| 20260507210158 | 79 | 114 | 5.2 | 8.7 | 0.00 | 0.00 | 0.00 | 23 | 1025.1 |
| 20260507205658 | 78 | 71 | 1.7 | 9.6 | 0.00 | 0.00 | 0.00 | 24 | 1025.2 |
| 20260507205159 | 77 | 52 | 4.3 | 10.4 | 0.00 | 0.00 | 0.00 | 24 | 1025.2 |
| 20260507204924 | 77 | 121 | 6.1 | 10.4 | 0.00 | 0.00 | 0.00 | 23 | 1025.3 |
| 20260507204159 | 78 | 111 | 4.3 | 9.6 | 0.00 | 0.00 | 0.00 | 24 | 1025.3 |
| 20260507203658 | 78 | 125 | 4.3 | 10.4 | 0.00 | 0.00 | 0.00 | 24 | 1025.5 |
| 20260507203159 | 78 | 87 | 3.5 | 10.4 | 0.00 | 0.00 | 0.00 | 26 | 1025.5 |
| 20260507202658 | 78 | 92 | 4.3 | 9.6 | 0.00 | 0.00 | 0.00 | 24 | 1025.5 |
| 20260507202157 | 77 | 49 | 4.3 | 11.3 | 0.00 | 0.00 | 0.00 | 27 | 1025.5 |
| 20260507201701 | 78 | 106 | 3.5 | 12.2 | 0.00 | 0.00 | 0.00 | 25 | 1025.6 |
| 20260507201156 | 77 | 78 | 5.2 | 12.2 | 0.00 | 0.00 | 0.00 | 25 | 1025.7 |
| 20260507200658 | 77 | 55 | 4.3 | 11.3 | 0.00 | 0.00 | 0.00 | 24 | 1025.6 |
| 20260507200157 | 77 | 116 | 4.3 | 8.7 | 0.00 | 0.00 | 0.00 | 26 | 1025.7 |
| 20260507195922 | 77 | 106 | 3.5 | 9.6 | 0.00 | 0.00 | 0.00 | 28 | 1025.7 |
| 20260507195157 | 76 | 142 | 5.2 | 9.6 | 0.00 | 0.00 | 0.00 | 26 | 1025.7 |
| 20260507194658 | 76 | 99 | 5.2 | 9.6 | 0.00 | 0.00 | 0.00 | 26 | 1025.7 |
| 20260507194418 | 76 | 109 | 2.6 | 8.7 | 0.00 | 0.00 | 0.00 | 26 | 1025.6 |
| 20260507193657 | 76 | 90 | 5.2 | 8.7 | 0.00 | 0.00 | 0.00 | 27 | 1025.7 |
| 20260507193157 | 76 | 58 | 3.5 | 7.8 | 0.00 | 0.00 | 0.00 | 26 | 1025.8 |
| 20260507192656 | 76 | 86 | 2.6 | 8.7 | 0.00 | 0.00 | 0.00 | 27 | 1026.1 |
| 20260507192157 | 75 | 134 | 2.6 | 8.7 | 0.00 | 0.00 | 0.00 | 28 | 1026.0 |
| 20260507191656 | 75 | 131 | 2.6 | 6.1 | 0.00 | 0.00 | 0.00 | 27 | 1026.1 |
| 20260507191158 | 75 | 80 | 3.5 | 8.7 | 0.00 | 0.00 | 0.00 | 26 | 1026.2 |
| 20260507190655 | 75 | 116 | 2.6 | 8.7 | 0.00 | 0.00 | 0.00 | 26 | 1026.1 |
| 20260507190157 | 75 | 323 | 1.7 | 5.2 | 0.00 | 0.00 | 0.00 | 25 | 1026.2 |
| 20260507185919 | 75 | 142 | 2.6 | 5.2 | 0.00 | 0.00 | 0.00 | 26 | 1026.2 |
| 20260507184655 | 74 | 107 | 0.9 | 6.1 | 0.00 | 0.00 | 0.00 | 27 | 1026.2 |
| 20260507184411 | 74 | 144 | 2.6 | 6.1 | 0.00 | 0.00 | 0.00 | 26 | 1026.3 |
| 20260507183656 | 74 | 47 | 1.7 | 4.3 | 0.00 | 0.00 | 0.00 | 28 | 1026.4 |
| 20260507183155 | 74 | 93 | 1.7 | 4.3 | 0.00 | 0.00 | 0.00 | 26 | 1026.4 |
| 20260507182923 | 74 | 39 | 1.7 | 5.2 | 0.00 | 0.00 | 0.00 | 27 | 1026.4 |
| 20260507182155 | 74 | 158 | 0.9 | 5.2 | 0.00 | 0.00 | 0.00 | 27 | 1026.5 |
| 20260507181655 | 74 | 243 | 1.7 | 4.3 | 0.00 | 0.00 | 0.00 | 28 | 1026.5 |
| 20260507181634 | 73 | 314 | 0.9 | 4.3 | 0.00 | 0.00 | 0.00 | 31 | 1026.5 |
| 20260507180654 | 73 | 16 | 0.9 | 3.5 | 0.00 | 0.00 | 0.00 | 29 | 1026.5 |
| 20260507180155 | 73 | 271 | 0.9 | 5.2 | 0.00 | 0.00 | 0.00 | 30 | 1026.6 |
| 20260507175654 | 72 | 326 | 2.6 | 9.6 | 0.00 | 0.00 | 0.00 | 29 | 1026.6 |
| 20260507175156 | 72 | 266 | 1.7 | 9.6 | 0.00 | 0.00 | 0.00 | 32 | 1026.7 |
| 20260507174657 | 73 | 248 | 2.6 | 5.2 | 0.00 | 0.00 | 0.00 | 31 | 1026.6 |
| 20260507174647 | 72 | 286 | 1.7 | 5.2 | 0.00 | 0.00 | 0.00 | 31 | 1026.7 |
| 20260507173653 | 71 | 259 | 0.0 | 8.7 | 0.00 | 0.00 | 0.00 | 34 | 1026.7 |
| 20260507173415 | 71 | 333 | 2.6 | 8.7 | 0.00 | 0.00 | 0.00 | 34 | 1026.7 |
| 20260507172654 | 71 | 293 | 1.7 | 7.8 | 0.00 | 0.00 | 0.00 | 34 | 1026.7 |
| 20260507172412 | 70 | 302 | 3.5 | 7.8 | 0.00 | 0.00 | 0.00 | 34 | 1026.6 |
| 20260507171654 | 70 | 292 | 3.5 | 7.8 | 0.00 | 0.00 | 0.00 | 33 | 1026.7 |
| 20260507171153 | 70 | 286 | 1.7 | 5.2 | 0.00 | 0.00 | 0.00 | 35 | 1026.7 |
| 20260507170917 | 69 | 321 | 1.7 | 6.1 | 0.00 | 0.00 | 0.00 | 38 | 1026.8 |
| 20260507170153 | 68 | 272 | 2.6 | 10.4 | 0.00 | 0.00 | 0.00 | 37 | 1026.8 |
| 20260507165654 | 68 | 276 | 4.3 | 10.4 | 0.00 | 0.00 | 0.00 | 36 | 1026.9 |
| 20260507165410 | 67 | 264 | 3.5 | 11.3 | 0.00 | 0.00 | 0.00 | 37 | 1026.9 |
| 20260507164653 | 67 | 285 | 5.2 | 12.2 | 0.00 | 0.00 | 0.00 | 37 | 1027.0 |
| 20260507164150 | 67 | 302 | 2.6 | 12.2 | 0.00 | 0.00 | 0.00 | 38 | 1026.9 |
| 20260507163652 | 67 | 282 | 1.7 | 7.8 | 0.00 | 0.00 | 0.00 | 39 | 1026.9 |
| 20260507163153 | 67 | 274 | 3.5 | 9.6 | 0.00 | 0.00 | 0.00 | 39 | 1027.0 |
| 20260507162909 | 66 | 293 | 5.2 | 9.6 | 0.00 | 0.00 | 0.00 | 38 | 1027.0 |
| 20260507162422 | 66 | 266 | 4.3 | 11.3 | 0.00 | 0.00 | 0.00 | 39 | 1027.1 |
| 20260507161652 | 66 | 271 | 5.2 | 11.3 | 0.00 | 0.00 | 0.00 | 40 | 1027.2 |
| 20260507161152 | 65 | 214 | 3.5 | 10.4 | 0.00 | 0.00 | 0.00 | 40 | 1027.3 |
| 20260507160652 | 65 | 292 | 3.5 | 10.4 | 0.00 | 0.00 | 0.00 | 42 | 1027.5 |
| 20260507160152 | 65 | 272 | 1.7 | 9.6 | 0.00 | 0.00 | 0.00 | 42 | 1027.2 |
| 20260507155649 | 65 | 241 | 1.7 | 13.0 | 0.00 | 0.00 | 0.00 | 41 | 1027.2 |
| 20260507155420 | 64 | 288 | 2.6 | 13.0 | 0.00 | 0.00 | 0.00 | 42 | 1027.5 |
| 20260507154652 | 64 | 274 | 2.6 | 9.6 | 0.00 | 0.00 | 0.00 | 43 | 1027.5 |
| 20260507154416 | 64 | 289 | 2.6 | 8.7 | 0.00 | 0.00 | 0.00 | 43 | 1027.5 |
| 20260507153652 | 63 | 278 | 2.6 | 10.4 | 0.00 | 0.00 | 0.00 | 44 | 1027.6 |
| 20260507153151 | 63 | 264 | 3.5 | 13.0 | 0.00 | 0.00 | 0.00 | 44 | 1027.6 |
| 20260507152651 | 62 | 271 | 2.6 | 13.0 | 0.00 | 0.00 | 0.00 | 44 | 1027.6 |
| 20260507152151 | 62 | 333 | 3.5 | 9.6 | 0.00 | 0.00 | 0.00 | 45 | 1027.7 |
| 20260507151650 | 62 | 275 | 2.6 | 8.7 | 0.00 | 0.00 | 0.00 | 45 | 1027.7 |
| 20260507151148 | 61 | 336 | 2.6 | 8.7 | 0.00 | 0.00 | 0.00 | 46 | 1027.9 |
| 20260507150650 | 61 | 286 | 2.6 | 6.1 | 0.00 | 0.00 | 0.00 | 47 | 1027.9 |
| 20260507150151 | 61 | 262 | 2.6 | 6.1 | 0.00 | 0.00 | 0.00 | 46 | 1027.9 |
| 20260507145650 | 61 | 300 | 1.7 | 9.6 | 0.00 | 0.00 | 0.00 | 47 | 1027.9 |
| 20260507145412 | 60 | 289 | 2.6 | 9.6 | 0.00 | 0.00 | 0.00 | 48 | 1027.8 |
| 20260507144650 | 60 | 281 | 2.6 | 12.2 | 0.00 | 0.00 | 0.00 | 48 | 1027.8 |
| 20260507144150 | 60 | 278 | 4.3 | 12.2 | 0.00 | 0.00 | 0.00 | 48 | 1027.8 |
| 20260507143646 | 60 | 307 | 7.0 | 12.2 | 0.00 | 0.00 | 0.00 | 47 | 1027.7 |
| 20260507143145 | 59 | 290 | 1.7 | 10.4 | 0.00 | 0.00 | 0.00 | 49 | 1027.7 |
| 20260507142648 | 59 | 303 | 4.3 | 11.3 | 0.00 | 0.00 | 0.00 | 48 | 1027.8 |
| 20260507142418 | 59 | 248 | 5.2 | 11.3 | 0.00 | 0.00 | 0.00 | 49 | 1027.9 |
| 20260507141650 | 58 | 296 | 2.6 | 11.3 | 0.00 | 0.00 | 0.00 | 51 | 1028.0 |
| 20260507141149 | 58 | 271 | 2.6 | 12.2 | 0.00 | 0.00 | 0.00 | 50 | 1027.9 |
| 20260507140650 | 58 | 299 | 2.6 | 12.2 | 0.00 | 0.00 | 0.00 | 51 | 1027.8 |
| 20260507140149 | 58 | 281 | 3.5 | 12.2 | 0.00 | 0.00 | 0.00 | 51 | 1027.9 |
| 20260507135649 | 57 | 269 | 5.2 | 12.2 | 0.00 | 0.00 | 0.00 | 51 | 1027.8 |
| 20260507135146 | 57 | 274 | 1.7 | 10.4 | 0.00 | 0.00 | 0.00 | 52 | 1027.8 |
| 20260507134645 | 57 | 269 | 3.5 | 10.4 | 0.00 | 0.00 | 0.00 | 51 | 1027.7 |
| 20260507134146 | 57 | 283 | 3.5 | 8.7 | 0.00 | 0.00 | 0.00 | 52 | 1027.6 |
| 20260507133648 | 57 | 320 | 1.7 | 7.8 | 0.00 | 0.00 | 0.00 | 53 | 1027.6 |
| 20260507133409 | 56 | 313 | 3.5 | 7.8 | 0.00 | 0.00 | 0.00 | 53 | 1027.5 |
| 20260507132648 | 56 | 283 | 3.5 | 7.8 | 0.00 | 0.00 | 0.00 | 53 | 1027.5 |
| 20260507132148 | 56 | 314 | 3.5 | 7.8 | 0.00 | 0.00 | 0.00 | 52 | 1027.5 |
| 20260507131915 | 56 | 254 | 3.5 | 7.8 | 0.00 | 0.00 | 0.00 | 53 | 1027.6 |
| 20260507131144 | 56 | 264 | 2.6 | 8.7 | 0.00 | 0.00 | 0.00 | 52 | 1027.3 |
| 20260507130645 | 56 | 269 | 2.6 | 8.7 | 0.00 | 0.00 | 0.00 | 52 | 1027.2 |
| 20260507130144 | 56 | 262 | 4.3 | 7.8 | 0.00 | 0.00 | 0.00 | 52 | 1027.1 |
| 20260507125646 | 56 | 281 | 3.5 | 8.7 | 0.00 | 0.00 | 0.00 | 52 | 1027.1 |
| 20260507125147 | 56 | 290 | 4.3 | 8.7 | 0.00 | 0.00 | 0.00 | 52 | 1027.0 |
| 20260507124649 | 56 | 300 | 3.5 | 5.2 | 0.00 | 0.00 | 0.00 | 52 | 1027.0 |
| 20260507124147 | 56 | 283 | 3.5 | 9.6 | 0.00 | 0.00 | 0.00 | 52 | 1027.0 |
| 20260507123647 | 56 | 251 | 1.7 | 9.6 | 0.00 | 0.00 | 0.00 | 52 | 1027.0 |
| 20260507123408 | 56 | 279 | 3.5 | 9.6 | 0.00 | 0.00 | 0.00 | 51 | 1027.0 |
| 20260507122647 | 56 | 285 | 3.5 | 5.2 | 0.00 | 0.00 | 0.00 | 51 | 1027.0 |
| 20260507122147 | 56 | 278 | 1.7 | 5.2 | 0.00 | 0.00 | 0.00 | 51 | 1027.0 |
| 20260507121647 | 56 | 275 | 2.6 | 6.1 | 0.00 | 0.00 | 0.00 | 51 | 1027.1 |
| 20260507121145 | 56 | 272 | 3.5 | 7.8 | 0.00 | 0.00 | 0.00 | 50 | 1027.1 |
| 20260507120646 | 57 | 261 | 4.3 | 7.8 | 0.00 | 0.00 | 0.00 | 50 | 1027.1 |
| 20260507120148 | 57 | 264 | 1.7 | 7.8 | 0.00 | 0.00 | 0.00 | 50 | 1027.1 |
| 20260507115908 | 57 | 290 | 2.6 | 7.8 | 0.00 | 0.00 | 0.00 | 50 | 1027.1 |
| 20260507115146 | 57 | 282 | 1.7 | 5.2 | 0.00 | 0.00 | 0.00 | 50 | 1027.2 |
| 20260507114646 | 57 | 17 | 0.9 | 5.2 | 0.00 | 0.00 | 0.00 | 50 | 1027.1 |
| 20260507114404 | 57 | 17 | 2.6 | 10.4 | 0.00 | 0.00 | 0.00 | 50 | 1027.1 |
| 20260507113643 | 57 | 289 | 0.9 | 10.4 | 0.00 | 0.00 | 0.00 | 50 | 1027.1 |
| 20260507113142 | 57 | 283 | 1.7 | 4.3 | 0.00 | 0.00 | 0.00 | 50 | 1027.2 |
| 20260507112900 | 57 | 272 | 0.9 | 8.7 | 0.00 | 0.00 | 0.00 | 50 | 1027.2 |
| 20260507112145 | 57 | 131 | 1.7 | 8.7 | 0.00 | 0.00 | 0.00 | 49 | 1027.1 |
| 20260507111647 | 57 | 1 | 1.7 | 4.3 | 0.00 | 0.00 | 0.00 | 49 | 1027.1 |
| 20260507111146 | 57 | 310 | 1.7 | 5.2 | 0.00 | 0.00 | 0.00 | 49 | 1027.0 |
| 20260507110645 | 57 | 247 | 0.0 | 14.8 | 0.00 | 0.00 | 0.00 | 49 | 1027.0 |
| 20260507110145 | 57 | 329 | 2.6 | 14.8 | 0.00 | 0.00 | 0.00 | 49 | 1027.0 |
| 20260507105644 | 57 | 96 | 2.6 | 7.8 | 0.00 | 0.00 | 0.00 | 48 | 1026.9 |
| 20260507105405 | 57 | 320 | 1.7 | 9.6 | 0.00 | 0.00 | 0.00 | 48 | 1027.0 |
| 20260507104645 | 57 | 127 | 2.6 | 9.6 | 0.00 | 0.00 | 0.00 | 48 | 1027.0 |
| 20260507104146 | 58 | 324 | 0.9 | 9.6 | 0.00 | 0.00 | 0.00 | 48 | 1027.0 |
| 20260507103911 | 58 | 238 | 2.6 | 9.6 | 0.00 | 0.00 | 0.00 | 47 | 1026.9 |
| 20260507103144 | 58 | 310 | 1.7 | 8.7 | 0.00 | 0.00 | 0.00 | 48 | 1026.9 |
| 20260507102644 | 58 | 281 | 0.9 | 8.7 | 0.00 | 0.00 | 0.00 | 47 | 1027.0 |
| 20260507102407 | 58 | 320 | 1.7 | 7.8 | 0.00 | 0.00 | 0.00 | 47 | 1026.9 |
| 20260507101644 | 58 | 255 | 2.6 | 7.8 | 0.00 | 0.00 | 0.00 | 47 | 1027.0 |
| 20260507101144 | 58 | 262 | 1.7 | 7.8 | 0.00 | 0.00 | 0.00 | 48 | 1026.8 |
| 20260507100641 | 58 | 255 | 1.7 | 7.8 | 0.00 | 0.00 | 0.00 | 48 | 1026.9 |
| 20260507100140 | 58 | 319 | 1.7 | 5.2 | 0.00 | 0.00 | 0.00 | 48 | 1026.8 |
| 20260507095645 | 58 | 162 | 1.7 | 9.6 | 0.00 | 0.00 | 0.00 | 48 | 1026.7 |
| 20260507095144 | 58 | 268 | 2.6 | 9.6 | 0.00 | 0.00 | 0.00 | 47 | 1026.7 |
| 20260507094643 | 58 | 34 | 1.7 | 9.6 | 0.00 | 0.00 | 0.00 | 47 | 1026.7 |
| 20260507094400 | 58 | 262 | 2.6 | 9.6 | 0.00 | 0.00 | 0.00 | 48 | 1026.6 |
| 20260507093643 | 58 | 214 | 1.7 | 7.8 | 0.00 | 0.00 | 0.00 | 48 | 1026.6 |
| 20260507093144 | 58 | 265 | 0.9 | 5.2 | 0.00 | 0.00 | 0.00 | 48 | 1026.6 |
| 20260507092643 | 58 | 329 | 0.9 | 5.2 | 0.00 | 0.00 | 0.00 | 48 | 1026.5 |
| 20260507092412 | 58 | 299 | 1.7 | 6.1 | 0.00 | 0.00 | 0.00 | 48 | 1026.5 |
| 20260507092144 | 58 | 288 | 0.9 | 6.1 | 0.00 | 0.00 | 0.00 | 48 | 1026.5 |
| 20260507091144 | 58 | 30 | 1.7 | 7.8 | 0.00 | 0.00 | 0.00 | 47 | 1026.5 |
| 20260507090910 | 58 | 269 | 1.7 | 7.8 | 0.00 | 0.00 | 0.00 | 47 | 1026.4 |
| 20260507090143 | 58 | 276 | 2.6 | 7.8 | 0.00 | 0.00 | 0.00 | 47 | 1026.4 |
| 20260507085645 | 58 | 269 | 1.7 | 10.4 | 0.00 | 0.00 | 0.00 | 47 | 1026.4 |
| 20260507085142 | 58 | 307 | 1.7 | 10.4 | 0.00 | 0.00 | 0.00 | 47 | 1026.5 |
| 20260507084642 | 58 | 272 | 1.7 | 9.6 | 0.00 | 0.00 | 0.00 | 47 | 1026.5 |
| 20260507084141 | 58 | 244 | 0.9 | 9.6 | 0.00 | 0.00 | 0.00 | 47 | 1026.5 |
| 20260507083640 | 58 | 327 | 1.7 | 6.1 | 0.00 | 0.00 | 0.00 | 47 | 1026.4 |
| 20260507083402 | 59 | 206 | 1.7 | 13.0 | 0.00 | 0.00 | 0.00 | 47 | 1026.3 |
| 20260507082642 | 59 | 271 | 3.5 | 13.0 | 0.00 | 0.00 | 0.00 | 47 | 1026.3 |
| 20260507082624 | 59 | 268 | 3.5 | 11.3 | 0.00 | 0.00 | 0.00 | 47 | 1026.4 |
| 20260507081641 | 59 | 298 | 3.5 | 11.3 | 0.00 | 0.00 | 0.00 | 46 | 1026.4 |
| 20260507081141 | 59 | 286 | 1.7 | 12.2 | 0.00 | 0.00 | 0.00 | 47 | 1026.5 |
| 20260507080642 | 59 | 251 | 1.7 | 12.2 | 0.00 | 0.00 | 0.00 | 47 | 1026.5 |
| 20260507080142 | 59 | 299 | 3.5 | 10.4 | 0.00 | 0.00 | 0.00 | 47 | 1026.4 |
| 20260507075641 | 59 | 266 | 1.7 | 6.1 | 0.00 | 0.00 | 0.00 | 47 | 1026.4 |
| 20260507075404 | 59 | 268 | 0.9 | 5.2 | 0.00 | 0.00 | 0.00 | 47 | 1026.5 |
| 20260507074641 | 59 | 41 | 0.9 | 11.3 | 0.00 | 0.00 | 0.00 | 47 | 1026.5 |
| 20260507074409 | 59 | 316 | 1.7 | 11.3 | 0.00 | 0.00 | 0.00 | 48 | 1026.3 |
| 20260507073641 | 58 | 312 | 2.6 | 7.8 | 0.00 | 0.00 | 0.00 | 48 | 1026.3 |
| 20260507073141 | 59 | 288 | 0.9 | 7.8 | 0.00 | 0.00 | 0.00 | 48 | 1026.3 |
| 20260507072902 | 59 | 296 | 0.0 | 8.7 | 0.00 | 0.00 | 0.00 | 48 | 1026.2 |
| 20260507072140 | 59 | 303 | 3.5 | 8.7 | 0.00 | 0.00 | 0.00 | 48 | 1026.1 |
| 20260507071641 | 59 | 269 | 3.5 | 10.4 | 0.00 | 0.00 | 0.00 | 47 | 1026.1 |
| 20260507071145 | 60 | 276 | 1.7 | 12.2 | 0.00 | 0.00 | 0.00 | 47 | 1026.0 |
| 20260507070641 | 60 | 299 | 7.0 | 12.2 | 0.00 | 0.00 | 0.00 | 46 | 1026.1 |
| 20260507070404 | 60 | 282 | 6.1 | 13.9 | 0.00 | 0.00 | 0.00 | 46 | 1026.1 |
| 20260507065640 | 60 | 271 | 5.2 | 13.9 | 0.00 | 0.00 | 0.00 | 46 | 1026.0 |
| 20260507065140 | 60 | 264 | 5.2 | 11.3 | 0.00 | 0.00 | 0.00 | 45 | 1026.0 |
| 20260507064639 | 60 | 274 | 4.3 | 11.3 | 0.00 | 0.00 | 0.00 | 45 | 1026.1 |
| 20260507064139 | 60 | 271 | 3.5 | 8.7 | 0.00 | 0.00 | 0.00 | 46 | 1026.2 |
| 20260507063907 | 60 | 258 | 2.6 | 10.4 | 0.00 | 0.00 | 0.00 | 45 | 1026.2 |
| 20260507063141 | 60 | 245 | 2.6 | 10.4 | 0.00 | 0.00 | 0.00 | 46 | 1026.2 |
| 20260507062904 | 60 | 295 | 0.9 | 10.4 | 0.00 | 0.00 | 0.00 | 46 | 1026.2 |
| 20260507062140 | 60 | 261 | 0.9 | 7.8 | 0.00 | 0.00 | 0.00 | 47 | 1025.7 |
| 20260507061639 | 60 | 293 | 2.6 | 7.8 | 0.00 | 0.00 | 0.00 | 47 | 1025.7 |
| 20260507061139 | 60 | 290 | 1.7 | 9.6 | 0.00 | 0.00 | 0.00 | 47 | 1025.8 |
| 20260507060639 | 60 | 52 | 1.7 | 9.6 | 0.00 | 0.00 | 0.00 | 47 | 1026.0 |
| 20260507060138 | 61 | 302 | 5.2 | 9.6 | 0.00 | 0.00 | 0.00 | 46 | 1025.7 |
| 20260507055638 | 60 | 264 | 3.5 | 9.6 | 0.00 | 0.00 | 0.00 | 47 | 1025.8 |
| 20260507055138 | 61 | 314 | 5.2 | 13.0 | 0.00 | 0.00 | 0.00 | 46 | 1026.0 |
| 20260507054638 | 61 | 293 | 3.5 | 13.0 | 0.00 | 0.00 | 0.00 | 46 | 1026.1 |
| 20260507054138 | 60 | 281 | 3.5 | 9.6 | 0.00 | 0.00 | 0.00 | 47 | 1026.0 |
| 20260507053639 | 60 | 281 | 2.6 | 5.2 | 0.00 | 0.00 | 0.00 | 47 | 1026.1 |
| 20260507053137 | 61 | 237 | 2.6 | 5.2 | 0.00 | 0.00 | 0.00 | 46 | 1026.2 |
| 20260507052637 | 61 | 276 | 2.6 | 5.2 | 0.00 | 0.00 | 0.00 | 45 | 1026.2 |
| 20260507052357 | 61 | 248 | 1.7 | 8.7 | 0.00 | 0.00 | 0.00 | 46 | 1026.1 |
| 20260507051638 | 61 | 290 | 0.9 | 11.3 | 0.00 | 0.00 | 0.00 | 45 | 1026.1 |
| 20260507051359 | 62 | 286 | 3.5 | 11.3 | 0.00 | 0.00 | 0.00 | 45 | 1026.0 |
| 20260507050636 | 62 | 324 | 3.5 | 8.7 | 0.00 | 0.00 | 0.00 | 44 | 1026.1 |
| 20260507050138 | 62 | 295 | 4.3 | 8.7 | 0.00 | 0.00 | 0.00 | 44 | 1026.2 |
| 20260507045637 | 62 | 272 | 1.7 | 4.3 | 0.00 | 0.00 | 0.00 | 45 | 1026.2 |
| 20260507045139 | 62 | 285 | 0.9 | 6.1 | 0.00 | 0.00 | 0.00 | 45 | 1026.2 |
| 20260507044637 | 62 | 289 | 2.6 | 6.1 | 0.00 | 0.00 | 0.00 | 44 | 1026.2 |
| 20260507044136 | 63 | 281 | 2.6 | 10.4 | 0.00 | 0.00 | 0.00 | 44 | 1026.1 |
| 20260507043637 | 63 | 279 | 5.2 | 10.4 | 0.00 | 0.00 | 0.00 | 44 | 1026.1 |
| 20260507043357 | 63 | 258 | 2.6 | 16.5 | 0.00 | 0.00 | 0.00 | 43 | 1026.0 |
| 20260507042637 | 63 | 282 | 1.7 | 16.5 | 0.00 | 0.00 | 0.00 | 43 | 1026.1 |
| 20260507042136 | 63 | 283 | 6.1 | 14.8 | 0.00 | 0.00 | 0.00 | 43 | 1026.1 |